• In Russia
  • List of Countries
  • For 7 days
  • Water Temperature
  • Satellite Maps
  • Weather Map
  • Weather Widgets
  • user-avatar
    Login

    Hourly Weather Ischgl

    Today, 22 May, Tuesday

    Time Temperature Precipitation Wind Pressure Humidity
    00:00 +1°C° 0 mm 2 mps 572 mmHg 89%
    01:00 -1°C° 0 mm 2 mps 571 mmHg 90%
    02:00 -1°C° 0 mm 2 mps 571 mmHg 90%
    03:00 -1°C° 0 mm 2 mps 571 mmHg 89%
    04:00 -1°C° 0 mm 2 mps 571 mmHg 89%
    05:00 +2°C° 0 mm 1 mps 572 mmHg 85%
    06:00 +4°C° 0 mm 1 mps 572 mmHg 81%
    07:00 +5°C° 0 mm 1 mps 573 mmHg 77%
    08:00 +7°C° 0 mm 1 mps 574 mmHg 70%
    09:00 +8°C° 0 mm 1 mps 575 mmHg 64%
    10:00 +9°C° 0 mm 1 mps 575 mmHg 57%
    11:00 +10°C° 0.3 mm 1 mps 575 mmHg 60%
    12:00 +10°C° 0.3 mm 1 mps 575 mmHg 62%
    13:00 +10°C° 0.3 mm 1 mps 575 mmHg 64%
    14:00 +9°C° 1 mm 1 mps 575 mmHg 70%
    15:00 +8°C° 1 mm 1 mps 574 mmHg 75%
    16:00 +8°C° 1 mm 1 mps 574 mmHg 80%
    17:00 +7°C° 0.8 mm 1 mps 574 mmHg 84%
    18:00 +6°C° 0.8 mm 1 mps 574 mmHg 87%
    19:00 +5°C° 0.8 mm 1 mps 573 mmHg 90%
    20:00 +5°C° 0.4 mm 1 mps 573 mmHg 91%
    21:00 +4°C° 0.4 mm 1 mps 573 mmHg 92%
    22:00 +4°C° 0.4 mm 1 mps 573 mmHg 93%
    23:00 +3°C° 0.2 mm 1 mps 573 mmHg 93%

    Tomorrow, 23 May, Wednesday

    Time Temperature Precipitation Wind Pressure Humidity
    00:00 +3°C° 0.2 mm 1 mps 573 mmHg 93%
    01:00 +3°C° 0.2 mm 1 mps 573 mmHg 93%
    02:00 +2°C° 0.2 mm 1 mps 573 mmHg 93%
    03:00 +2°C° 0.2 mm 1 mps 573 mmHg 93%
    04:00 +2°C° 0.2 mm 1 mps 573 mmHg 93%
    05:00 +3°C° 0.1 mm 1 mps 574 mmHg 89%
    06:00 +4°C° 0.1 mm 1 mps 575 mmHg 86%
    07:00 +4°C° 0.1 mm 0 mps 575 mmHg 83%
    08:00 +6°C° 0.1 mm 0 mps 576 mmHg 77%
    09:00 +8°C° 0.1 mm 1 mps 577 mmHg 71%
    10:00 +10°C° 0.1 mm 1 mps 578 mmHg 65%
    11:00 +10°C° 0.4 mm 1 mps 578 mmHg 65%
    12:00 +11°C° 0.4 mm 1 mps 578 mmHg 65%
    13:00 +11°C° 0.4 mm 1 mps 578 mmHg 65%
    14:00 +11°C° 1.1 mm 1 mps 578 mmHg 67%
    15:00 +11°C° 1.1 mm 1 mps 578 mmHg 70%
    16:00 +10°C° 1.1 mm 2 mps 578 mmHg 73%
    17:00 +10°C° 1 mm 1 mps 577 mmHg 78%
    18:00 +9°C° 1 mm 1 mps 577 mmHg 83%
    19:00 +8°C° 1 mm 1 mps 577 mmHg 88%
    20:00 +7°C° 0.5 mm 1 mps 576 mmHg 90%
    21:00 +6°C° 0.5 mm 1 mps 576 mmHg 92%
    22:00 +5°C° 0.5 mm 1 mps 576 mmHg 93%
    23:00 +4°C° 0.1 mm 1 mps 576 mmHg 93%

    Day after tomorrow, 24 May, Thursday

    Time Temperature Precipitation Wind Pressure Humidity
    00:00 +4°C° 0.1 mm 1 mps 576 mmHg 93%
    01:00 +4°C° 0.1 mm 1 mps 576 mmHg 93%
    02:00 +3°C° 0 mm 1 mps 576 mmHg 93%
    03:00 +3°C° 0 mm 1 mps 576 mmHg 93%
    04:00 +3°C° 0 mm 1 mps 575 mmHg 93%
    05:00 +4°C° 0.1 mm 1 mps 576 mmHg 89%
    06:00 +5°C° 0.1 mm 0 mps 577 mmHg 86%
    07:00 +6°C° 0.1 mm 0 mps 578 mmHg 83%
    08:00 +7°C° 0.3 mm 0 mps 578 mmHg 77%
    09:00 +10°C° 0.3 mm 1 mps 579 mmHg 72%
    10:00 +11°C° 0.3 mm 1 mps 580 mmHg 66%
    11:00 +12°C° 0.8 mm 1 mps 580 mmHg 65%
    12:00 +12°C° 0.8 mm 1 mps 580 mmHg 63%
    13:00 +12°C° 0.8 mm 1 mps 580 mmHg 62%
    14:00 +12°C° 1 mm 1 mps 580 mmHg 64%
    15:00 +12°C° 1 mm 1 mps 579 mmHg 66%
    16:00 +12°C° 1 mm 1 mps 579 mmHg 68%
    17:00 +11°C° 0.8 mm 1 mps 579 mmHg 73%
    18:00 +10°C° 0.8 mm 1 mps 578 mmHg 79%
    19:00 +9°C° 0.8 mm 1 mps 578 mmHg 84%
    20:00 +8°C° 0.1 mm 1 mps 578 mmHg 87%
    21:00 +7°C° 0.1 mm 1 mps 577 mmHg 90%
    22:00 +5°C° 0.1 mm 1 mps 577 mmHg 93%
    23:00 +5°C° 0 mm 1 mps 577 mmHg 92%

    25 May, Friday

    Time Temperature Precipitation Wind Pressure Humidity
    00:00 +4°C° 0 mm 1 mps 576 mmHg 92%
    01:00 +4°C° 0 mm 1 mps 576 mmHg 92%
    02:00 +4°C° 0 mm 1 mps 576 mmHg 90%
    03:00 +3°C° 0 mm 1 mps 576 mmHg 89%
    04:00 +3°C° 0 mm 1 mps 576 mmHg 88%
    05:00 +5°C° 0 mm 1 mps 577 mmHg 81%
    06:00 +7°C° 0 mm 1 mps 578 mmHg 74%
    07:00 +9°C° 0 mm 1 mps 579 mmHg 67%
    08:00 +10°C° 0 mm 1 mps 580 mmHg 59%
    09:00 +12°C° 0 mm 1 mps 580 mmHg 50%
    10:00 +14°C° 0 mm 1 mps 581 mmHg 42%
    11:00 +15°C° 0 mm 1 mps 581 mmHg 40%
    12:00 +16°C° 0 mm 1 mps 582 mmHg 39%
    13:00 +16°C° 0 mm 1 mps 582 mmHg 38%
    14:00 +16°C° 0.2 mm 2 mps 582 mmHg 40%
    15:00 +16°C° 0.2 mm 2 mps 581 mmHg 43%
    16:00 +15°C° 0.2 mm 2 mps 581 mmHg 46%
    17:00 +14°C° 0.5 mm 2 mps 580 mmHg 55%
    18:00 +13°C° 0.5 mm 2 mps 580 mmHg 65%
    19:00 +11°C° 0.5 mm 1 mps 579 mmHg 74%
    20:00 +10°C° 0.2 mm 1 mps 579 mmHg 77%
    21:00 +8°C° 0.2 mm 1 mps 578 mmHg 80%
    22:00 +6°C° 0.2 mm 1 mps 578 mmHg 82%
    23:00 +6°C° 0 mm 1 mps 577 mmHg 80%

    26 May, Saturday

    Time Temperature Precipitation Wind Pressure Humidity
    00:00 +6°C° 0 mm 1 mps 577 mmHg 78%
    01:00 +5°C° 0 mm 1 mps 577 mmHg 76%
    02:00 +5°C° 0 mm 1 mps 577 mmHg 73%
    03:00 +5°C° 0 mm 1 mps 577 mmHg 71%
    04:00 +5°C° 0 mm 1 mps 577 mmHg 68%
    05:00 +7°C° 0 mm 1 mps 578 mmHg 61%
    06:00 +9°C° 0 mm 1 mps 579 mmHg 55%
    07:00 +11°C° 0 mm 1 mps 580 mmHg 48%
    08:00 +13°C° 0 mm 1 mps 581 mmHg 43%
    09:00 +15°C° 0 mm 1 mps 582 mmHg 37%
    10:00 +18°C° 0 mm 1 mps 583 mmHg 31%
    11:00 +19°C° 0 mm 1 mps 583 mmHg 31%
    12:00 +19°C° 0 mm 1 mps 583 mmHg 30%
    13:00 +19°C° 0 mm 2 mps 584 mmHg 30%
    14:00 +18°C° 0 mm 2 mps 583 mmHg 33%
    15:00 +18°C° 0 mm 2 mps 583 mmHg 35%
    16:00 +18°C° 0 mm 2 mps 583 mmHg 38%
    17:00 +16°C° 0.2 mm 2 mps 582 mmHg 48%
    18:00 +15°C° 0.2 mm 1 mps 582 mmHg 57%
    19:00 +13°C° 0.2 mm 1 mps 581 mmHg 67%
    20:00 +12°C° 0.3 mm 1 mps 581 mmHg 70%
    21:00 +10°C° 0.3 mm 1 mps 581 mmHg 73%
    22:00 +9°C° 0.3 mm 1 mps 580 mmHg 75%
    23:00 +8°C° 0 mm 1 mps 580 mmHg 74%

    27 May, Sunday

    Time Temperature Precipitation Wind Pressure Humidity
    00:00 +8°C° 0 mm 1 mps 580 mmHg 73%
    01:00 +7°C° 0 mm 1 mps 579 mmHg 72%
    02:00 +7°C° 0 mm 1 mps 579 mmHg 70%
    03:00 +7°C° 0 mm 1 mps 579 mmHg 68%
    04:00 +7°C° 0 mm 1 mps 579 mmHg 67%
    05:00 +9°C° 0 mm 1 mps 580 mmHg 62%
    06:00 +11°C° 0 mm 1 mps 581 mmHg 56%
    07:00 +12°C° 0 mm 1 mps 582 mmHg 51%
    08:00 +14°C° 0 mm 1 mps 583 mmHg 46%
    09:00 +16°C° 0 mm 1 mps 583 mmHg 40%
    10:00 +19°C° 0 mm 1 mps 584 mmHg 35%
    11:00 +19°C° 0 mm 1 mps 584 mmHg 34%
    12:00 +20°C° 0 mm 1 mps 584 mmHg 33%
    13:00 +19°C° 0 mm 2 mps 584 mmHg 32%
    14:00 +19°C° 0.1 mm 2 mps 584 mmHg 35%
    15:00 +18°C° 0.1 mm 2 mps 584 mmHg 39%
    16:00 +18°C° 0.1 mm 2 mps 583 mmHg 42%
    17:00 +16°C° 0.7 mm 2 mps 582 mmHg 52%
    18:00 +15°C° 0.7 mm 1 mps 582 mmHg 62%
    19:00 +13°C° 0.7 mm 1 mps 581 mmHg 72%
    20:00 +12°C° 0.5 mm 1 mps 581 mmHg 75%
    21:00 +11°C° 0.5 mm 1 mps 580 mmHg 77%
    22:00 +10°C° 0.5 mm 1 mps 580 mmHg 79%
    23:00 +9°C° 0.1 mm 1 mps 580 mmHg 78%
    Show more